Home   Weather   Werl   Past weeks

Flag for Germany Past Weather in Werl, North Rhine-Westphalia, Germany — Yesterday and Last 2 Weeks

Now
52 °F

Light rain. Clear.


Feels Like: 51 °F
Forecast: 49 / 58 °F
Wind: 5 mph from Southeast

Location: Paderborn / Lippstadt

Current Time: Oct 1, 2016 at 5:25:14 AM

Latest Report: Oct 1, 2016 at 4:50 AM


Visibility: N/A

Pressure: 29.89 "Hg

Humidity: 82%

Dew Point: 46 °F

Location of WerlLocation

Past Weather in Werl — Graph

°F

Werl Temperature Yesterday

Maximum temperature yesterday: 63 °F (at 12:50 PM)
Minimum temperature yesterday: 52 °F (at 8:50 PM)
Average temperature yesterday: 58 °F

High & Low Weather Summary for the Past Weeks

 TemperatureHumidityPressure
High79 °F (Sep 25, 1:50 PM)94% (Sep 17, 3:20 PM)30.33 "Hg (Sep 17, 3:20 PM)
Low43 °F (Sep 21, 5:50 AM)28% (Sep 25, 2:50 PM)29.89 "Hg (Oct 1, 3:20 AM)
Average60 °F66%30.11 "Hg
* Reported Sep 16 3:20 AM — Oct 1 3:50 AM, Werl, Weather by CustomWeather, © 2016

Note: Actual official high and low records may vary slightly from our data, if they occured in-between our weather recording intervals... More about our weather records

Advertising

Werl Weather History for the Previous 24 Hours

Scroll right to see more
 ConditionsComfort  
Time TempWeatherWind HumidityBarometerVisibility
3:50 AM
Sat, Oct 1
52 °FLight rain. Clear.7 mph82%29.89 "HgN/A
3:20 AM52 °FClear.7 mph77%29.89 "Hg10 mi
2:50 AM52 °FClear.8 mph77%29.92 "Hg10 mi
2:20 AM52 °FClear.8 mph77%29.92 "Hg10 mi
1:50 AM50 °FClear.7 mph82%29.92 "Hg10 mi
1:20 AM54 °FClear.8 mph72%29.95 "Hg10 mi
12:50 AM55 °FClear.9 mph67%29.95 "Hg10 mi
12:20 AM54 °FClear.10 mph72%29.95 "Hg10 mi
11:50 PM
Fri, Sep 30
55 °FClear.8 mph67%29.95 "Hg10 mi
11:20 PM54 °FClear.8 mph72%29.98 "Hg10 mi
10:50 PM54 °FClear.6 mph72%29.98 "Hg10 mi
10:20 PM54 °FClear.1 mph72%29.98 "Hg10 mi
9:50 PM55 °FClear.7 mph67%29.98 "Hg10 mi
9:20 PM55 °FClear.6 mph67%29.98 "Hg10 mi
8:50 PM52 °FPassing clouds.6 mph77%29.95 "HgN/A
8:20 PM54 °FPassing clouds.7 mph72%29.98 "HgN/A
7:50 PM55 °FPassing clouds.5 mph67%29.95 "HgN/A
7:20 PM59 °FPassing clouds.3 mph59%29.95 "HgN/A
6:50 PM61 °FPassing clouds.6 mph59%29.95 "HgN/A
6:20 PM61 °FPassing clouds.6 mph59%29.95 "HgN/A
5:50 PM61 °FPassing clouds.7 mph59%29.95 "HgN/A
5:20 PM63 °FPassing clouds.9 mph56%29.95 "HgN/A
4:50 PM63 °FScattered clouds.9 mph56%29.95 "HgN/A
4:20 PM63 °FScattered clouds.8 mph52%29.95 "HgN/A
3:50 PM63 °FScattered clouds.9 mph56%29.95 "HgN/A
3:20 PM63 °FPassing clouds.10 mph52%29.95 "HgN/A
2:50 PM63 °FScattered clouds.8 mph59%29.95 "HgN/A
2:20 PM63 °FScattered clouds.8 mph59%29.95 "HgN/A
1:50 PM63 °FScattered clouds.10 mph59%29.95 "HgN/A
1:20 PM63 °FScattered clouds.9 mph59%29.95 "HgN/A
12:50 PM63 °FScattered clouds.9 mph59%29.95 "HgN/A
12:20 PM61 °FScattered clouds.9 mph63%29.95 "HgN/A
11:50 AM61 °FScattered clouds.12 mph68%29.95 "HgN/A
11:20 AM59 °FScattered clouds.12 mph68%29.95 "HgN/A
10:50 AM59 °FScattered clouds.12 mph72%29.95 "HgN/A
10:20 AM59 °FScattered clouds.10 mph77%29.95 "HgN/A
9:50 AM57 °FScattered clouds.12 mph77%29.95 "HgN/A
9:20 AM57 °FScattered clouds.9 mph77%29.95 "HgN/A
8:50 AM55 °FScattered clouds.8 mph82%29.92 "HgN/A
8:20 AM55 °FScattered clouds.7 mph82%29.92 "HgN/A
7:50 AM55 °FScattered clouds.8 mph82%29.92 "HgN/A
7:20 AM55 °FPassing clouds.9 mph82%29.92 "HgN/A
6:50 AM55 °FPassing clouds.8 mph82%29.92 "HgN/A
6:20 AM55 °FPassing clouds.9 mph82%29.92 "HgN/A
5:50 AM57 °FPassing clouds.10 mph77%29.92 "HgN/A
5:20 AM57 °FClear.8 mph77%29.92 "Hg10 mi
Weather by CustomWeather, © 2016

See weather overviewHow to use our weather pages